CZ-6A DEB, 54518

Orbit data source: Space-Track

CZ-6A DEB, 54518 is space debris in SSO originally from a launch on Fri, 11 Nov 2022 UTC launched from the Taiyaun Space Center, China (TSC). Debris objects in space refer to the collection of defunct objects orbiting the Earth. Examples of debris include non-operational satellites, rocket bodies, and fragments generated from explosions, collisions, or faulty payload assembly.

Loading next visibility...
Identifier
54518, 2022-151JW
Orbit
SSO
Country
Flag of CNCN / PRC
Related business
Manufacturer
SAST
Mission
Spacecraft
Bus & Motor
Unknown
Mass
Unknown
Launch date (UTC)
2022-11-11 (4 years ago)
Launch vehicle
Unknown
Launch site
Taiyaun Space Center, China (TSC)
Object type
Payload
Rocket body
Debris
Shape & HBR
Unknown shape, 0.1 m
Radar Cross Section
Medium (>0.1 m² and <1 m²)

Expand to show TLE details & history
Last TLE update: 2 days ago

TLE from 2 days ago
0 CZ-6A DEB
1 54518U 22151JW  26171.04231338  .00001376  00000-0  50326-3 0  9991
2 54518  98.7721 210.7797 0128239 107.4115 254.1136 14.30060896187506
Epoch: 2026-06-20T01:00Z
TLE epoch observation values (Epoch: 2026-06-20T01:00:55.876Z)
Latitude
0.00008°
Longitude
-72.71575°
Altitude
820.712 km
Speed
7.429 km/s
True Right ascension
14h 03m 07s
True Declination
0° 00' 00"
Sunlit
Object was in full shadow at epoch
Visualization orbit readout
Latitude
Unknown
Longitude
Unknown
Altitude
Unknown
Speed
Unknown
Apparent Right ascension
Unknown
Apparent Declination
Unknown
Sunlit
N/A
Visualization observer readout
Local Sidereal Time
21:35:46
Azimuth
Unknown
Elevation
Unknown
Doppler factor
Unknown
Orbital elements
Apogee altitude
880.581 km
Perigee altitude
696.768 km
Semi-major axis
7,166.812 km
Eccentricity
0.01282
Inclination
98.7721°
RAAN
210.7797°
Arg. of periapsis
107.4115°
True anomaly
252.70653°
Mean anomaly
254.1136°
Eccentric anomaly
253.40943°
Mean motion
3.57729 °/min
Orbital period
100.63 mins
BSTAR
0.00050326
Loading maneuver chart data...
Computing Atmospheric mass density...
Loading historical data...
Loading historical data...
Loading historical data...
Loading historical data...
Loading historical data...
Loading historical data...
Loading historical data...

Documentation

Showing up to 5 results
|